This is the latest recevied weather packets stored in our database for station/object KH6DH-13. If no packets are shown the sender has not sent any weather packets the latest 10 day(s).
| Time | Temp. | Humidity | Pressure | Rain* | Wind** | Luminosity | Snow |
|---|---|---|---|---|---|---|---|
| 1788673949 | 25.56° C | - | - | 0 mm | 1.34 m/s, 342° | - | - |
| 1788673348 | 25.56° C | - | - | 0 mm | 0 m/s | - | - |
| 1788672747 | 25.56° C | - | - | 0 mm | 0.45 m/s, 89° | - | - |
| 1788672146 | 25.56° C | - | - | 0 mm | 0.89 m/s, 41° | - | - |
| 1788671545 | 25.56° C | - | - | 0 mm | 3.58 m/s, 110° | - | - |
| 1788670944 | 25.56° C | - | - | 0 mm | 1.34 m/s, 63° | - | - |
| 1788670343 | 25.56° C | - | - | 0 mm | 1.79 m/s, 103° | - | - |
| 1788669742 | 26.11° C | - | - | 0 mm | 1.34 m/s, 44° | - | - |
| 1788669141 | 26.11° C | - | - | 0 mm | 0.45 m/s, 131° | - | - |
| 1788668540 | 26.11° C | - | - | 0 mm | 0.89 m/s, 139° | - | - |
| 1788667939 | 26.11° C | - | - | 0 mm | 0.89 m/s, 84° | - | - |
| 1788667338 | 26.67° C | - | - | 0 mm | 0 m/s | - | - |
| 1788666737 | 26.67° C | - | - | 0 mm | 0 m/s | - | - |
| 1788666136 | 27.22° C | - | - | 0 mm | 1.79 m/s, 53° | - | - |
| 1788665535 | 27.78° C | - | - | 0 mm | 0.89 m/s, 8° | - | - |
| 1788664934 | 28.33° C | - | - | 0 mm | 2.24 m/s, 107° | - | - |
| 1788664333 | 28.33° C | - | - | 0 mm | 2.68 m/s, 83° | - | - |
| 1788663732 | 27.78° C | - | - | 0 mm | 1.79 m/s, 94° | - | - |
| 1788663131 | 27.78° C | - | - | 0 mm | 2.24 m/s, 24° | - | - |
| 1788662530 | 27.78° C | - | - | 0 mm | 2.24 m/s, 15° | - | - |
| 1788661929 | 27.78° C | - | - | 0 mm | 2.24 m/s, 53° | - | - |
| 1788661328 | 28.89° C | - | - | 0 mm | 0.45 m/s, 6° | - | - |
| 1788660727 | 29.44° C | - | - | 0 mm | 0.45 m/s, 129° | - | - |
| 1788660126 | 29.44° C | - | - | 0 mm | 2.68 m/s, 58° | - | - |
| 1788659525 | 28.89° C | - | - | 0 mm | 3.58 m/s, 87° | - | - |
* Rain latest hour (hover to see other rain measurements)
** Current wind speed in m/s (hover to see current wind gust speed)